Home   Weather   Montpellier   Past weeks

Flag for France Past Weather in Montpellier, Languedoc-Roussillon, France — Yesterday and Last 2 Weeks

63 °F


Feels Like: 63 °F
Forecast: 55 / 71 °F
Wind: 7 mph from Northeast

Location: Montpellier Airport

Current Time: Oct 26, 2016 at 12:47:21 AM

Latest Report: Oct 26, 2016 at 12:00 AM

Visibility: 10 mi

Pressure: 30.18 "Hg

Humidity: 88%

Dew Point: 59 °F

Location of MontpellierLocation

Past Weather in Montpellier — Graph


Montpellier Temperature Yesterday

Maximum temperature yesterday: 72 °F (at 4:00 PM)
Minimum temperature yesterday: 63 °F (at 11:00 PM)
Average temperature yesterday: 67 °F

High & Low Weather Summary for the Past Weeks

High75 °F (Oct 18, 3:30 PM)100% (Oct 13, 10:00 PM)30.24 "Hg (Oct 13, 10:00 PM)
Low41 °F (Oct 22, 8:00 AM)26% (Oct 11, 4:30 PM)29.53 "Hg (Oct 14, 5:00 AM)
Average59 °F73%29.96 "Hg
* Reported Oct 10 11:30 PM — Oct 25 11:30 PM, Montpellier, Weather by CustomWeather, © 2016

Note: Actual official high and low records may vary slightly from our data, if they occured in-between our weather recording intervals... More about our weather records


Montpellier Weather History for the Previous 24 Hours

Scroll right to see more
Time TempWeatherWind HumidityBarometerVisibility
11:30 PM
Tue, Oct 25
63 °FClear.8 mph94%30.18 "Hg10 mi
11:00 PM63 °FPassing clouds.8 mph94%30.18 "HgN/A
10:30 PM64 °FPassing clouds.6 mph88%30.18 "HgN/A
10:00 PM64 °FPassing clouds.No wind88%30.18 "HgN/A
9:30 PM64 °FPassing clouds.3 mph88%30.15 "HgN/A
9:00 PM66 °FPassing clouds.6 mph88%30.15 "HgN/A
8:30 PM66 °FOvercast.6 mph88%30.15 "HgN/A
8:00 PM68 °FOvercast.5 mph88%30.15 "HgN/A
7:30 PM68 °FMostly cloudy.3 mph88%30.12 "HgN/A
7:00 PM70 °FPartly cloudy.1 mph83%30.12 "HgN/A
6:30 PM70 °FBroken clouds.1 mph83%30.09 "HgN/A
6:00 PM70 °FBroken clouds.No wind83%30.12 "HgN/A
5:30 PM72 °FBroken clouds.2 mph78%30.12 "HgN/A
5:00 PM72 °FBroken clouds.No wind78%30.09 "HgN/A
4:30 PM72 °FBroken clouds.3 mph78%30.09 "HgN/A
4:00 PM72 °FPartly sunny.3 mph78%30.12 "HgN/A
3:30 PM70 °FPartly sunny.2 mph83%30.12 "HgN/A
3:00 PM68 °FPartly sunny.5 mph88%30.12 "Hg6 mi
2:30 PM70 °FPartly sunny.6 mph83%30.12 "Hg6 mi
2:00 PM68 °FPartly sunny.3 mph88%30.12 "Hg6 mi
1:30 PM68 °FPartly sunny.No wind88%30.12 "HgN/A
1:00 PM68 °FPartly sunny.No wind83%30.12 "HgN/A
12:30 PM68 °FPartly sunny.2 mph83%30.12 "HgN/A
12:00 PM68 °FPartly sunny.2 mph88%30.12 "HgN/A
11:30 AM68 °FLight rain. Partly sunny.3 mph88%30.09 "HgN/A
11:00 AM66 °FPartly sunny.3 mph94%30.09 "HgN/A
10:30 AM66 °FPartly sunny.5 mph94%30.09 "Hg4 mi
10:00 AM66 °FBroken clouds.5 mph88%30.09 "Hg4 mi
9:30 AM66 °FSprinkles. Broken clouds.5 mph88%30.09 "Hg4 mi
9:00 AM66 °FLight rain. Partly sunny.2 mph88%30.09 "Hg6 mi
8:30 AM66 °FPartly sunny.3 mph88%30.09 "HgN/A
8:00 AM66 °FPassing clouds.6 mph88%30.07 "HgN/A
7:30 AM66 °FPassing clouds.3 mph88%30.04 "HgN/A
7:00 AM66 °FPassing clouds.7 mph88%30.04 "HgN/A
6:30 AM66 °FPartly cloudy.12 mph88%30.01 "HgN/A
6:00 AM64 °FLight rain. Passing clouds.12 mph94%30.01 "HgN/A
5:30 AM64 °FOvercast.5 mph94%30.04 "Hg6 mi
5:00 AM66 °FLight rain. Overcast.2 mph88%30.07 "Hg4 mi
4:30 AM66 °FOvercast.1 mph88%30.09 "HgN/A
4:00 AM66 °FPassing clouds.3 mph88%30.04 "HgN/A
3:30 AM66 °FMostly cloudy.6 mph88%30.04 "HgN/A
3:00 AM68 °FPassing clouds.7 mph83%30.07 "HgN/A
2:30 AM66 °FMostly cloudy.3 mph88%30.07 "HgN/A
2:00 AM66 °FMostly cloudy.5 mph88%30.04 "HgN/A
1:30 AM66 °FMostly cloudy.6 mph88%30.04 "HgN/A
1:00 AM68 °FMostly cloudy.9 mph83%30.04 "HgN/A
12:30 AM68 °FMostly cloudy.10 mph83%30.04 "HgN/A
12:00 AM68 °FOvercast.8 mph83%30.04 "HgN/A
Weather by CustomWeather, © 2016

See weather overviewHow to use our weather pages